Tracking 18851 objects as of 25-Nov-2017
HD Live streaming from Space Station
objects crossing your sky now

FENGYUN 1C DEB

Track FENGYUN 1C DEB now!
10-day predictions


NORAD ID: 30758
Int'l Code: 1999-025ATU
Perigee: 842.9 km
Apogee: 906.8 km
Inclination: 99.0 °
Period: 102.3 minutes
Semi major axis: 7245 km
RCS: 0.0121 m2 (small)
Launch date: May 10, 1999
Source: People's Republic of China (PRC)
Launch site: Taiyaun Space Center, China (TSC)

Note: This is SATELLITE DEBRIS
aabbcc
Your satellite tracking list
Your tracking list is empty




NASA's NSSDC Master Catalog

Two Line Element Set (TLE):
1 30758U 99025ATU 17328.80240392 +.00000563 +00000-0 +35758-3 0  9992
2 30758 099.0246 046.8849 0044080 345.2970 142.2999 14.07557193550581
Source of the keplerian elements: AFSPC